Date,TemperatureHighF,TemperatureAvgF,TemperatureLowF,DewpointHighF,DewpointAvgF,DewpointLowF,HumidityHigh,HumidityAvg,HumidityLow,PressureMaxIn,PressureMinIn,WindSpeedMaxMPH,WindSpeedAvgMPH,GustSpeedMaxMPH,PrecipitationSumIn
2013-2-28,47.3,46.1,41.5,43.7,43.1,40.3,96,89,87,29.55,29.54,0,0,0,0.00
2013-4-25,51.2,48.2,45.6,50.7,48.2,45.6,100,100,98,30.23,30.14,9,3,10,0.00
2013-4-26,55.7,48.7,41.9,53.9,47.7,41.9,100,97,87,30.39,30.22,16,3,17,0.00
2013-4-27,56.9,47.8,38.5,52.3,46.1,38.5,100,94,76,30.39,30.30,9,3,10,0.00
2013-4-28,58.2,46.7,38.1,56.9,46.4,38.1,100,99,94,30.33,30.28,9,3,10,0.00
2013-5-13,58.3,54.8,50.5,51.5,47.2,39.7,87,76,53,29.98,29.92,124,11,243,0.00
2013-5-14,56.9,51.8,46.3,49.7,44.1,38.6,96,76,53,30.01,29.95,52,8,224,0.00
2013-5-15,60.7,54.6,47.3,58.7,53.1,42.5,100,95,78,30.04,29.66,42,16,189,0.00
2013-5-16,69.6,60.0,54.1,61.0,57.0,53.8,100,91,69,29.69,29.62,192,8,198,0.00
2013-5-30,76.9,70.3,64.0,74.3,69.4,63.8,100,97,91,30.05,29.99,58,8,70,0.00
2013-5-31,77.8,68.7,62.1,75.1,67.8,62.1,100,97,88,30.06,29.95,63,6,202,0.00
2013-6-1,74.0,67.4,62.5,72.4,67.0,62.4,100,99,93,29.98,29.92,52,9,204,0.00
2013-6-2,69.1,64.9,63.3,69.0,64.9,63.3,100,100,100,29.93,29.87,81,11,218,0.00
2013-6-17,72.7,67.7,64.0,71.7,67.3,64.0,100,99,94,29.90,29.80,14,6,20,0.00
2013-6-18,72.8,66.7,62.2,72.8,66.5,62.2,100,99,95,29.90,29.82,35,4,132,0.00
2013-6-19,66.5,61.3,58.7,62.6,59.9,56.4,100,95,74,29.94,29.80,17,7,27,0.00
2013-6-26,80.1,75.3,70.7,76.7,74.1,70.7,100,96,89,29.82,29.71,10,3,41,0.00
2013-6-27,74.1,69.8,66.0,74.1,69.8,66.0,100,100,100,29.82,29.72,12,4,77,0.00
2013-6-28,72.0,69.9,68.9,72.0,69.9,68.9,100,100,100,29.73,29.54,32,18,170,0.00
2013-6-29,71.4,69.9,68.8,71.4,69.9,68.7,100,100,100,29.74,29.51,25,12,152,0.00
2013-6-30,71.9,69.6,68.3,71.7,69.6,68.2,100,100,100,29.85,29.73,15,6,195,0.00
2013-7-3,80.3,76.5,73.4,79.5,76.3,73.4,100,99,96,30.20,30.15,87,11,107,0.00
2013-7-4,82.8,75.3,71.6,81.3,75.1,71.5,100,99,93,30.20,30.10,25,10,218,0.00
2013-7-5,85.1,76.8,72.0,81.7,76.2,72.0,100,98,87,30.14,30.05,22,8,135,0.00
2013-7-6,86.2,78.8,72.5,81.8,77.4,72.5,100,96,83,30.06,29.93,54,8,146,0.00
2013-7-7,84.3,78.2,74.5,82.1,77.8,74.5,100,99,91,29.98,29.94,12,4,65,0.00
2013-7-8,84.6,79.9,74.4,79.3,77.2,74.4,100,92,80,30.01,29.91,21,10,22,0.00
2013-7-9,77.5,73.5,70.4,77.3,73.4,70.4,100,100,96,30.05,29.99,10,2,19,0.00
2013-7-10,80.5,74.6,71.3,80.5,74.6,71.2,100,100,100,30.04,29.87,16,5,18,0.00
2013-7-11,75.0,73.7,72.6,75.0,73.7,72.4,100,100,100,29.87,29.80,13,4,31,0.00
2013-7-12,75.9,72.1,67.4,75.9,71.9,67.3,100,99,93,30.13,29.86,14,4,17,0.00
2013-7-13,78.1,71.0,67.6,78.1,71.0,67.6,100,100,100,30.27,30.13,11,3,15,0.00
2013-7-14,81.8,76.1,70.9,81.7,76.0,70.9,100,100,99,30.26,30.16,11,3,78,0.00
2013-7-15,85.5,79.0,73.2,84.3,78.2,73.2,100,97,84,30.16,30.07,18,2,249,0.00
2013-7-16,87.4,79.5,73.2,77.8,74.7,70.5,100,86,59,30.12,30.03,20,4,31,0.00
2013-7-17,78.8,73.2,71.0,77.1,72.9,71.0,100,99,94,30.15,30.10,8,1,10,0.00
2013-7-22,76.9,73.1,70.7,76.8,73.1,70.7,100,100,99,29.92,29.84,12,4,88,0.00
2013-7-23,83.0,77.1,71.3,83.0,77.1,71.3,100,100,98,29.84,29.52,19,9,139,0.00
2013-7-24,86.3,78.7,72.1,82.6,76.8,70.0,100,94,71,29.85,29.53,31,6,210,0.00
2013-7-25,72.6,67.1,63.1,71.7,66.3,63.1,100,97,93,29.99,29.85,18,7,27,0.00
2013-7-26,68.2,65.8,64.3,68.1,65.8,64.3,100,100,100,29.96,29.79,26,6,46,0.00
2013-7-27,78.2,71.9,66.7,78.2,71.9,66.7,100,100,100,30.02,29.96,16,8,84,0.00
2013-7-28,77.4,72.6,69.9,77.4,72.6,69.7,100,100,100,29.97,29.90,14,2,18,0.00
2013-7-31,80.1,75.1,70.8,74.4,69.7,65.0,93,84,64,30.05,30.03,38,7,93,0.00
2013-8-1,79.0,73.4,68.8,76.8,72.6,67.7,100,97,90,30.03,29.86,76,9,233,0.00
2013-8-2,80.1,72.4,67.1,79.7,71.9,67.1,100,98,91,29.86,29.76,43,8,126,0.00
2013-8-3,74.1,72.4,70.2,73.7,72.1,70.0,100,99,91,29.84,29.76,32,9,107,0.00
2013-8-4,78.3,70.0,62.1,74.3,67.2,61.0,100,91,76,29.82,29.72,66,6,172,0.00
2013-8-5,66.6,63.0,59.6,63.8,61.8,59.5,100,96,83,29.90,29.81,18,7,25,0.00
2013-8-10,81.5,76.7,68.0,76.4,72.0,65.1,96,86,70,29.96,29.84,17,8,21,0.00
2013-8-11,77.7,69.5,60.8,68.1,62.6,56.0,100,80,55,30.03,29.95,41,5,92,0.00
2013-8-12,76.3,70.3,67.8,75.4,69.9,67.2,100,99,95,30.00,29.88,13,5,66,0.00
2013-8-13,73.5,69.8,65.8,73.5,69.8,65.8,100,100,100,29.89,29.62,15,2,18,0.00
2013-8-14,75.1,68.0,63.1,67.8,63.7,57.6,100,87,57,29.89,29.61,20,5,153,0.00
2013-8-15,75.8,65.5,58.0,64.8,59.6,53.7,100,83,54,30.09,29.89,16,6,63,0.00
2013-8-16,67.4,65.2,62.4,65.9,64.1,62.3,100,96,90,30.10,30.07,9,4,44,0.00
2013-8-18,76.2,70.2,63.6,72.6,67.6,63.4,100,92,82,30.22,30.05,149,4,174,0.00
2013-8-19,78.0,69.5,59.9,76.3,68.6,59.9,100,97,84,30.04,29.92,46,6,177,0.00
2013-8-20,80.5,73.8,66.9,78.2,72.4,66.9,100,96,80,30.06,29.93,167,5,170,0.00
2013-8-21,80.8,73.5,64.9,79.2,73.0,64.5,100,99,92,30.10,30.00,92,4,207,0.00
2013-8-22,79.8,74.4,70.6,79.3,74.2,70.6,100,99,94,30.01,29.80,20,7,125,0.00
2013-8-23,74.4,71.1,63.5,73.5,67.8,61.6,100,90,67,30.04,29.76,33,6,41,0.00
2013-8-24,70.8,66.0,62.5,64.3,60.0,50.0,100,83,49,30.24,30.04,20,5,22,0.00
2013-8-30,73.9,71.0,69.4,73.6,71.0,69.4,100,100,98,29.84,29.82,52,10,177,0.00
2013-8-31,76.8,72.7,69.8,76.7,72.7,69.6,100,100,100,29.83,29.80,65,9,211,0.00
2013-9-1,75.1,72.4,71.1,75.0,72.4,71.1,100,100,100,29.85,29.79,22,4,82,0.00
2013-9-11,72.9,71.8,71.1,72.7,71.8,71.1,100,100,100,30.02,29.98,13,7,23,0.00
2013-9-12,76.4,72.3,69.8,76.4,72.3,69.7,100,100,100,29.99,29.68,20,8,24,0.00
2013-9-13,74.2,70.6,63.2,74.2,70.6,63.2,100,100,100,29.68,29.53,15,5,25,0.00
2013-9-14,71.1,63.2,57.9,68.9,62.5,57.9,100,98,89,30.00,29.66,14,3,17,0.00
2013-9-15,61.4,55.2,52.4,61.1,55.2,52.2,100,100,100,30.12,30.00,8,1,12,0.00
2013-10-11,58.5,57.1,55.7,58.5,57.1,55.7,100,100,100,30.10,30.07,8,2,10,0.00
2013-10-12,63.1,58.7,54.2,63.0,58.7,54.2,100,100,100,30.32,30.08,24,7,28,0.00
2013-10-13,59.1,53.6,45.7,55.7,52.2,45.5,100,95,83,30.39,30.30,18,4,22,0.00
2013-10-14,56.7,45.9,42.5,56.3,45.9,42.5,100,100,99,30.36,30.32,9,1,9,0.00